When you browse on this site, cookies collect data to enhance your experience and personalize the content and advertising you see.
Visit our Privacy Policy to learn more. By continuing to use the site, you agree to this use of cookies and data.
  • In Austria
  • List of Countries
  • For 7 days
  • Water Temperature
  • Satellite Maps
  • Weather Map
  • News
  • Weather Widgets
  • user-avatar
    Login

    Hourly Weather Sterling Heights

    Today, 23 April, Tuesday

    Time Temperature Precipitation Wind Pressure Humidity
    00:00 +13°C° 0 mm 4 mps 744 mmHg 73%
    01:00 +14°C° 0 mm 4 mps 743 mmHg 72%
    02:00 +14°C° 0 mm 4 mps 742 mmHg 72%
    03:00 +14°C° 0 mm 5 mps 741 mmHg 71%
    04:00 +14°C° 0.6 mm 5 mps 741 mmHg 75%
    05:00 +14°C° 0.6 mm 6 mps 740 mmHg 79%
    06:00 +15°C° 0.6 mm 6 mps 739 mmHg 83%
    07:00 +16°C° 0.1 mm 6 mps 739 mmHg 82%
    08:00 +16°C° 0.1 mm 7 mps 739 mmHg 81%
    09:00 +17°C° 0.1 mm 7 mps 739 mmHg 80%
    10:00 +17°C° 0 mm 7 mps 740 mmHg 76%
    11:00 +16°C° 0 mm 7 mps 740 mmHg 71%
    12:00 +16°C° 0 mm 7 mps 740 mmHg 67%
    13:00 +16°C° 0 mm 7 mps 741 mmHg 66%
    14:00 +15°C° 0 mm 7 mps 741 mmHg 64%
    15:00 +15°C° 0 mm 6 mps 741 mmHg 62%
    16:00 +14°C° 0 mm 6 mps 742 mmHg 62%
    17:00 +14°C° 0 mm 5 mps 742 mmHg 62%
    18:00 +13°C° 0 mm 4 mps 742 mmHg 61%
    19:00 +12°C° 0 mm 4 mps 743 mmHg 62%
    20:00 +11°C° 0 mm 4 mps 743 mmHg 62%
    21:00 +10°C° 0 mm 4 mps 744 mmHg 63%
    22:00 +8°C° 0 mm 4 mps 744 mmHg 65%
    23:00 +8°C° 0 mm 3 mps 744 mmHg 68%

    Tomorrow, 24 April, Wednesday

    Time Temperature Precipitation Wind Pressure Humidity
    00:00 +8°C° 0 mm 3 mps 745 mmHg 70%
    01:00 +7°C° 0 mm 3 mps 745 mmHg 71%
    02:00 +7°C° 0 mm 3 mps 745 mmHg 72%
    03:00 +5°C° 0 mm 3 mps 745 mmHg 72%
    04:00 +6°C° 0 mm 2 mps 745 mmHg 71%
    05:00 +6°C° 0 mm 2 mps 745 mmHg 71%
    06:00 +7°C° 0 mm 2 mps 745 mmHg 70%
    07:00 +8°C° 0 mm 2 mps 745 mmHg 61%
    08:00 +10°C° 0 mm 2 mps 746 mmHg 53%
    09:00 +13°C° 0 mm 2 mps 746 mmHg 45%
    10:00 +14°C° 0 mm 2 mps 746 mmHg 40%
    11:00 +16°C° 0 mm 2 mps 745 mmHg 35%
    12:00 +17°C° 0 mm 2 mps 745 mmHg 31%
    13:00 +17°C° 0 mm 2 mps 745 mmHg 30%
    14:00 +18°C° 0 mm 2 mps 744 mmHg 30%
    15:00 +19°C° 0 mm 2 mps 744 mmHg 29%
    16:00 +18°C° 0 mm 2 mps 744 mmHg 34%
    17:00 +17°C° 0 mm 2 mps 744 mmHg 38%
    18:00 +16°C° 0 mm 1 mps 743 mmHg 43%
    19:00 +15°C° 0 mm 2 mps 743 mmHg 46%
    20:00 +14°C° 0 mm 2 mps 743 mmHg 48%
    21:00 +13°C° 0 mm 2 mps 743 mmHg 51%
    22:00 +12°C° 0 mm 2 mps 743 mmHg 52%
    23:00 +12°C° 0 mm 2 mps 743 mmHg 53%

    Day after tomorrow, 25 April, Thursday

    Time Temperature Precipitation Wind Pressure Humidity
    00:00 +10°C° 0 mm 2 mps 743 mmHg 55%
    01:00 +10°C° 0 mm 2 mps 743 mmHg 57%
    02:00 +10°C° 0 mm 2 mps 743 mmHg 59%
    03:00 +9°C° 0 mm 2 mps 742 mmHg 61%
    04:00 +9°C° 0 mm 2 mps 742 mmHg 61%
    05:00 +10°C° 0 mm 2 mps 742 mmHg 62%
    06:00 +10°C° 0 mm 2 mps 742 mmHg 62%
    07:00 +12°C° 0 mm 3 mps 742 mmHg 56%
    08:00 +14°C° 0 mm 3 mps 742 mmHg 50%
    09:00 +17°C° 0 mm 3 mps 742 mmHg 45%
    10:00 +18°C° 0 mm 3 mps 741 mmHg 42%
    11:00 +19°C° 0 mm 3 mps 741 mmHg 39%
    12:00 +20°C° 0 mm 4 mps 740 mmHg 36%
    13:00 +20°C° 0 mm 3 mps 740 mmHg 38%
    14:00 +20°C° 0 mm 3 mps 739 mmHg 40%
    15:00 +21°C° 0 mm 3 mps 738 mmHg 42%
    16:00 +20°C° 0 mm 3 mps 738 mmHg 47%
    17:00 +19°C° 0 mm 3 mps 738 mmHg 52%
    18:00 +18°C° 0 mm 2 mps 737 mmHg 57%
    19:00 +17°C° 0 mm 2 mps 738 mmHg 60%
    20:00 +16°C° 0 mm 2 mps 738 mmHg 63%
    21:00 +15°C° 0 mm 2 mps 738 mmHg 66%
    22:00 +13°C° 0.3 mm 4 mps 738 mmHg 71%
    23:00 +10°C° 0.3 mm 6 mps 738 mmHg 76%

    26 April, Friday

    Time Temperature Precipitation Wind Pressure Humidity
    00:00 +9°C° 0.3 mm 7 mps 738 mmHg 82%
    01:00 +9°C° 0.8 mm 6 mps 738 mmHg 80%
    02:00 +8°C° 0.8 mm 5 mps 738 mmHg 78%
    03:00 +8°C° 0.8 mm 5 mps 739 mmHg 76%
    04:00 +8°C° 0 mm 5 mps 739 mmHg 74%
    05:00 +8°C° 0 mm 5 mps 740 mmHg 73%
    06:00 +8°C° 0 mm 6 mps 741 mmHg 72%
    07:00 +10°C° 0 mm 6 mps 741 mmHg 62%
    08:00 +11°C° 0 mm 6 mps 741 mmHg 53%
    09:00 +14°C° 0 mm 6 mps 741 mmHg 43%
    10:00 +15°C° 0 mm 6 mps 741 mmHg 38%
    11:00 +15°C° 0 mm 7 mps 742 mmHg 33%
    12:00 +16°C° 0 mm 8 mps 742 mmHg 27%
    13:00 +15°C° 0 mm 8 mps 742 mmHg 27%
    14:00 +15°C° 0 mm 8 mps 742 mmHg 28%
    15:00 +15°C° 0 mm 9 mps 743 mmHg 28%
    16:00 +12°C° 0 mm 8 mps 743 mmHg 30%
    17:00 +11°C° 0 mm 6 mps 744 mmHg 33%
    18:00 +10°C° 0 mm 5 mps 744 mmHg 35%
    19:00 +9°C° 0 mm 5 mps 745 mmHg 36%
    20:00 +10°C° 0 mm 4 mps 745 mmHg 37%
    21:00 +8°C° 0 mm 4 mps 746 mmHg 38%
    22:00 +8°C° 0 mm 3 mps 746 mmHg 41%
    23:00 +8°C° 0 mm 3 mps 746 mmHg 45%

    27 April, Saturday

    Time Temperature Precipitation Wind Pressure Humidity
    00:00 +7°C° 0 mm 2 mps 747 mmHg 48%
    01:00 +7°C° 0 mm 2 mps 746 mmHg 49%
    02:00 +7°C° 0 mm 1 mps 746 mmHg 50%
    03:00 +6°C° 0 mm 0 mps 746 mmHg 50%
    04:00 +6°C° 0 mm 0 mps 747 mmHg 49%
    05:00 +8°C° 0 mm 1 mps 747 mmHg 48%
    06:00 +8°C° 0 mm 1 mps 747 mmHg 46%
    07:00 +8°C° 0 mm 2 mps 747 mmHg 42%
    08:00 +9°C° 0 mm 3 mps 747 mmHg 39%
    09:00 +11°C° 0 mm 4 mps 746 mmHg 35%
    10:00 +9°C° 0 mm 5 mps 745 mmHg 38%
    11:00 +9°C° 0 mm 5 mps 745 mmHg 40%
    12:00 +9°C° 0 mm 5 mps 744 mmHg 43%
    13:00 +9°C° 0.4 mm 5 mps 743 mmHg 49%
    14:00 +9°C° 0.4 mm 5 mps 742 mmHg 56%
    15:00 +9°C° 0.4 mm 6 mps 741 mmHg 62%
    16:00 +9°C° 0.4 mm 6 mps 740 mmHg 66%
    17:00 +9°C° 0.4 mm 6 mps 739 mmHg 70%
    18:00 +9°C° 0.4 mm 6 mps 739 mmHg 74%
    19:00 +10°C° 0.2 mm 6 mps 738 mmHg 75%
    20:00 +11°C° 0.2 mm 7 mps 737 mmHg 77%
    21:00 +11°C° 0.2 mm 7 mps 736 mmHg 78%
    22:00 +12°C° 0 mm 7 mps 735 mmHg 78%
    23:00 +12°C° 0 mm 8 mps 734 mmHg 78%

    28 April, Sunday

    Time Temperature Precipitation Wind Pressure Humidity
    00:00 +13°C° 0 mm 8 mps 734 mmHg 78%
    01:00 +10°C° 0 mm 9 mps 735 mmHg 77%
    02:00 +7°C° 0 mm 9 mps 735 mmHg 76%
    03:00 +5°C° 0 mm 9 mps 736 mmHg 75%
    04:00 +5°C° 0 mm 9 mps 738 mmHg 73%
    05:00 +4°C° 0 mm 8 mps 740 mmHg 72%
    06:00 +4°C° 0 mm 8 mps 742 mmHg 70%
    07:00 +5°C° 0 mm 7 mps 743 mmHg 66%
    08:00 +7°C° 0 mm 6 mps 744 mmHg 61%
    09:00 +9°C° 0 mm 6 mps 745 mmHg 57%
    10:00 +9°C° 0 mm 5 mps 746 mmHg 55%
    11:00 +11°C° 0 mm 4 mps 746 mmHg 54%
    12:00 +11°C° 0 mm 4 mps 746 mmHg 52%
    13:00 +12°C° 0 mm 4 mps 747 mmHg 51%
    14:00 +12°C° 0 mm 3 mps 747 mmHg 51%
    15:00 +12°C° 0 mm 3 mps 748 mmHg 50%
    16:00 +10°C° 0.1 mm 4 mps 748 mmHg 55%
    17:00 +8°C° 0.1 mm 4 mps 748 mmHg 61%
    18:00 +6°C° 0.1 mm 4 mps 749 mmHg 66%
    19:00 +6°C° 0.2 mm 4 mps 749 mmHg 67%
    20:00 +5°C° 0.2 mm 3 mps 749 mmHg 69%
    21:00 +4°C° 0.2 mm 3 mps 750 mmHg 70%
    22:00 +4°C° 0 mm 3 mps 750 mmHg 72%
    23:00 +5°C° 0 mm 2 mps 750 mmHg 73%
    Show more